Location: Godzisko
(49.9648°N, 19.4576°E)
Time: 01:28:31
(UTC+00:00)

SL-24 R/B - Pass Details

Date: 20 April 2021
Orbit: 504 x 1003 km, 97.4° (Epoch: 07 May)

Event Time Altitude Azimuth Distance (km) Brightness Sun altitude
Rises 02:42:59 0° 161° (SSE) 2,830 7.3 -9.0°
Reaches altitude 10° 02:45:14 10° 160° (SSE) 1,872 6.4 -8.7°
Maximum altitude 02:49:13 77° 76° (ENE) 555 4.0 -8.2°
Drops below altitude 10° 02:52:56 10° 350° (N) 1,748 6.6 -7.6°
Sets 02:54:58 0° 349° (NNW) 2,624 7.5 -7.4°
